Retour au catalogue

COSMOS 1823 DEB

ActifLEO
NORAD 18803·DEBRIS·🇷🇺 Russia

Lancé Feb 20, 1987 depuis Plesetsk Cosmodrome

Loading…

Prochains Passages (prochaines 24 heures)

TLE

FraisSource: Space-Track

Époque: Sep 13, 2026, 22:52 UTC

1 18803U 87020AP  26256.95313914  .00000010  00000-0  22918-3 0  9999
2 18803  73.4466  96.8926 0085015 358.8317 120.9883 12.32030923741262

Suivez COSMOS 1823 DEB en temps réel avec AllMySat

Download on the App Store